Location: Observatoire
(46.1952°N, 5.3391°E)
Time: 22:27:35
(UTC+01:00)

Tiros 1 despin weight - Pass Details

Date: 23 February 2026
Orbit: 556 x 593 km, 48.2° (Epoch: 7 March)

Event Time Altitude Azimuth Distance (km) Brightness Sun altitude
Rises 18:19:31 0° 288° (WNW) 2,737 ? -1.4°
Reaches altitude 10° 18:21:47 10° 285° (WNW) 1,838 ? -1.8°
Maximum altitude 18:25:56 64° 204° (SSW) 619 ? -2.5°
Drops below altitude 10° 18:30:04 10° 123° (ESE) 1,833 ? -3.2°
Sets 18:32:19 0° 120° (ESE) 2,728 ? -3.6°
